This is the latest recevied weather packets stored in our database for station/object NT9G. If no packets are shown the sender has not sent any weather packets the latest 1 day(s).
| Time | Temp. | Humidity | Pressure | Rain* | Wind** | Luminosity | Snow |
|---|---|---|---|---|---|---|---|
| 1778013664 | 13.33° C | 35% | 1011 hPa | 0.25 mm | 0 m/s | - | - |
| 1778013364 | 13.33° C | 37% | 1011 hPa | 0.25 mm | 0 m/s | - | - |
| 1778013064 | 12.78° C | 35% | 1011.1 hPa | 0.25 mm | 0 m/s | - | - |
| 1778012763 | 12.78° C | 36% | 1011.1 hPa | 0.25 mm | 0 m/s | - | - |
| 1778012463 | 12.78° C | 39% | 1011.1 hPa | 0.25 mm | 0 m/s | - | - |
| 1778012163 | 12.78° C | 38% | 1011.3 hPa | 0.25 mm | 0 m/s | - | - |
| 1778011863 | 12.78° C | 39% | 1011.2 hPa | 0.25 mm | 0 m/s | - | - |
| 1778011562 | 12.78° C | 38% | 1011.2 hPa | 0.25 mm | 0 m/s | - | - |
| 1778011262 | 13.33° C | 39% | 1011.3 hPa | 0.25 mm | 0 m/s | - | - |
| 1778010962 | 13.33° C | 38% | 1011.5 hPa | 0.25 mm | 0 m/s | - | - |
| 1778010661 | 13.33° C | 39% | 1011.4 hPa | 0.25 mm | 0 m/s | - | - |
| 1778010361 | 13.33° C | 39% | 1011.3 hPa | 0.25 mm | 0 m/s | - | - |
| 1778010061 | 13.33° C | 38% | 1011.3 hPa | 0.25 mm | 0 m/s | - | - |
| 1778009761 | 13.33° C | 37% | 1011.3 hPa | 0.25 mm | 0 m/s | - | - |
| 1778009460 | 13.33° C | 38% | 1011.3 hPa | 0.25 mm | 0 m/s | - | - |
| 1778009160 | 13.89° C | 44% | 1011.2 hPa | 0.25 mm | 0 m/s | - | - |
| 1778008860 | 13.89° C | 45% | 1011.1 hPa | 0.25 mm | 0 m/s | - | - |
| 1778008559 | 13.89° C | 45% | 1011.1 hPa | 0.25 mm | 0 m/s | - | - |
| 1778008259 | 13.89° C | 45% | 1011.1 hPa | 0.25 mm | 0 m/s | - | - |
| 1778007959 | 13.89° C | 47% | 1011.1 hPa | 0.25 mm | 0 m/s | - | - |
| 1778007659 | 13.33° C | 45% | 1011.2 hPa | 0.25 mm | 0 m/s | - | - |
| 1778007358 | 13.89° C | 46% | 1011.2 hPa | 0.25 mm | 0 m/s | - | - |
| 1778007058 | 13.89° C | 46% | 1011.2 hPa | 0.25 mm | 0 m/s | - | - |
| 1778006758 | 13.33° C | 44% | 1011.2 hPa | 0.25 mm | 0 m/s | - | - |
| 1778006457 | 13.89° C | 45% | 1011.2 hPa | 0.25 mm | 0 m/s | - | - |
* Rain since midnight (hover to see other rain measurements)
** Current wind speed in m/s (hover to see current wind gust speed)